FW4606 Weather Reports


time (UTC)temp
C
wind
direction
speed
KPH
gust
KPH
rain 1hr
cm
rain 24hr
cm
rain mn
cm
humidity
%
barometer
mb
20260505224049 11 314 0.0 4.8 0.00 0.00 0.00 45 1010.2
20260505223817 10 119 0.0 1.6 0.00 0.00 0.00 47 1010.2
20260505223045 9 115 0.0 4.8 0.00 0.00 0.00 44 1010.2
20260505222545 10 323 1.6 8.0 0.00 0.00 0.00 47 1010.3
20260505222043 10 124 1.6 9.7 0.00 0.00 0.00 45 1010.2
20260505221542 9 224 1.6 11.3 0.00 0.00 0.00 45 1010.3
20260505221042 9 136 1.6 11.3 0.00 0.00 0.00 46 1010.2
20260505220544 9 149 1.6 8.0 0.00 0.00 0.00 48 1010.3
20260505220312 9 170 4.8 16.1 0.00 0.00 0.00 44 1010.3
20260505215540 10 180 6.4 16.1 0.00 0.00 0.00 44 1010.3
20260505215312 10 156 6.4 12.9 0.00 0.00 0.00 46 1010.4
20260505214542 10 189 8.0 12.9 0.00 0.00 0.00 44 1010.5
20260505214314 11 201 8.0 12.9 0.00 0.00 0.00 44 1010.4
20260505213540 10 163 6.4 16.1 0.00 0.00 0.00 44 1010.4
20260505213041 10 191 3.2 16.1 0.00 0.00 0.00 43 1010.4
20260505212534 10 214 4.8 11.3 0.00 0.00 0.00 46 1010.4
20260505212027 10 190 8.0 17.7 0.00 0.00 0.00 44 1010.4
20260505211522 10 152 8.0 17.7 0.00 0.00 0.00 43 1010.5
20260505211015 11 228 3.2 14.5 0.00 0.00 0.00 42 1010.4
20260505210509 11 203 3.2 11.3 0.00 0.00 0.00 48 1010.6
20260505210005 10 277 3.2 11.3 0.00 0.00 0.00 46 1010.6
20260505205729 10 184 1.6 11.3 0.00 0.00 0.00 46 1010.5
20260505204958 11 203 1.6 11.3 0.00 0.00 0.00 46 1010.6
20260505204458 11 188 3.2 11.3 0.00 0.00 0.00 46 1010.7
20260505204000 10 36 6.4 14.5 0.00 0.00 0.00 46 1010.6
20260505203458 10 207 4.8 14.5 0.00 0.00 0.00 44 1010.5
20260505202956 10 120 4.8 11.3 0.00 0.00 0.00 45 1010.6
20260505202457 10 208 4.8 12.9 0.00 0.00 0.00 44 1010.7
20260505201956 10 197 3.2 12.9 0.00 0.00 0.00 46 1010.7
20260505201457 10 118 3.2 9.7 0.00 0.00 0.00 47 1010.8
20260505200956 10 217 1.6 9.7 0.00 0.00 0.00 43 1010.7
20260505200457 11 213 3.2 12.9 0.00 0.00 0.00 47 1010.8
20260505195956 11 143 3.2 12.9 0.00 0.00 0.00 42 1010.8
20260505195454 11 197 1.6 11.3 0.00 0.00 0.00 44 1010.7
20260505194955 11 47 1.6 11.3 0.00 0.00 0.00 47 1010.7
20260505194457 10 273 3.2 11.3 0.00 0.00 0.00 47 1010.6
20260505193952 10 99 4.8 11.3 0.00 0.00 0.00 45 1010.7
20260505193445 10 221 4.8 11.3 0.00 0.00 0.00 44 1010.6
20260505192940 10 193 3.2 11.3 0.00 0.00 0.00 43 1010.7
20260505192434 10 121 3.2 11.3 0.00 0.00 0.00 45 1010.7
20260505191927 10 169 3.2 11.3 0.00 0.00 0.00 47 1010.7
20260505191421 10 169 3.2 9.7 0.00 0.00 0.00 45 1010.8
20260505190916 10 102 1.6 9.7 0.00 0.00 0.00 45 1010.7
20260505190411 10 197 1.6 9.7 0.00 0.00 0.00 44 1010.7
20260505185911 10 214 1.6 6.4 0.00 0.00 0.00 45 1010.8
20260505185409 10 226 1.6 6.4 0.00 0.00 0.00 45 1010.8
20260505184908 10 338 1.6 8.0 0.00 0.00 0.00 44 1010.8
20260505184639 10 68 1.6 8.0 0.00 0.00 0.00 44 1010.7
20260505183907 10 126 1.6 8.0 0.00 0.00 0.00 46 1010.8
20260505183406 10 193 1.6 12.9 0.00 0.00 0.00 44 1010.8
20260505182903 10 309 4.8 12.9 0.00 0.00 0.00 44 1010.7
20260505182402 10 147 4.8 11.3 0.00 0.00 0.00 46 1010.7
20260505182134 10 203 6.4 12.9 0.00 0.00 0.00 46 1010.7
20260505181401 9 167 4.8 12.9 0.00 0.00 0.00 45 1010.7
20260505180903 9 193 1.6 12.9 0.00 0.00 0.00 45 1010.8
20260505180401 9 153 3.2 12.9 0.00 0.00 0.00 46 1010.7
20260505175901 9 130 6.4 12.9 0.00 0.00 0.00 48 1010.7
20260505175400 9 222 4.8 12.9 0.00 0.00 0.00 45 1010.7
20260505174900 9 214 1.6 8.0 0.00 0.00 0.00 45 1010.7
20260505174401 8 116 4.8 16.1 0.00 0.00 0.00 44 1010.7
20260505173859 9 215 6.4 16.1 0.00 0.00 0.00 44 1010.8
20260505173630 9 232 6.4 16.1 0.00 0.00 0.00 46 1010.7
20260505172853 10 153 3.2 16.1 0.00 0.00 0.00 45 1010.6
20260505172620 9 229 1.6 9.7 0.00 0.00 0.00 47 1010.8
20260505171841 9 98 3.2 16.1 0.00 0.00 0.00 43 1010.7
20260505171334 10 293 4.8 16.1 0.00 0.00 0.00 43 1010.8
20260505170829 11 110 6.4 16.1 0.00 0.00 0.00 41 1010.7
20260505170323 11 129 6.4 16.1 0.00 0.00 0.00 47 1010.7
20260505165817 10 165 6.4 14.5 0.00 0.00 0.00 52 1010.6
20260505165542 10 163 4.8 14.5 0.00 0.00 0.00 49 1010.8
20260505164806 9 203 4.8 14.5 0.00 0.00 0.00 50 1010.8
20260505164259 8 193 4.8 12.9 0.00 0.00 0.00 48 1010.7
20260505163753 9 186 4.8 11.3 0.00 0.00 0.00 45 1010.6
20260505163247 9 191 4.8 11.3 0.00 0.00 0.00 48 1010.6
20260505163009 9 128 6.4 17.7 0.00 0.00 0.00 49 1010.7
20260505162842 9 210 4.8 11.3 0.00 0.00 0.00 49 1010.6
20260505161959 9 103 6.4 17.7 0.00 0.00 0.00 49 1010.7
20260505161223 9 149 4.8 17.7 0.00 0.00 0.00 50 1010.6
20260505160716 8 153 1.6 11.3 0.00 0.00 0.00 50 1010.8
20260505160210 8 153 4.8 12.9 0.00 0.00 0.00 48 1010.7
20260505152629 7 158 0.0 8.0 0.00 0.00 0.00 49 1010.8
20260505152122 7 88 1.6 8.0 0.00 0.00 0.00 50 1010.7
20260505151617 7 359 3.2 9.7 0.00 0.00 0.00 47 1010.8
20260505151342 8 155 4.8 11.3 0.00 0.00 0.00 53 1010.6
20260505150605 8 233 3.2 11.3 0.00 0.00 0.00 50 1010.7
20260505124819 2 11 0.0 6.4 0.00 0.00 0.00 65 1009.6
20260505124313 2 328 0.0 4.8 0.00 0.00 0.00 66 1009.6
20260505123807 2 109 0.0 4.8 0.00 0.00 0.00 68 1009.5
20260505123300 1 105 1.6 8.0 0.00 0.00 0.00 69 1009.3
20260505122755 1 112 0.0 8.0 0.00 0.00 0.00 73 1009.2
20260505122249 1 114 0.0 1.6 0.00 0.00 0.00 75 1009.2
20260505121743 0 142 0.0 1.6 0.00 0.00 0.00 77 1009.2
20260505121236 0 129 0.0 1.6 0.00 0.00 0.00 79 1009.2
20260505120730 0 150 0.0 0.0 0.00 0.00 0.00 80 1009.1
20260505120225 0 103 0.0 1.6 0.00 0.00 0.00 81 1009.1
20260505115951 0 101 0.0 1.6 0.00 0.00 0.00 82 1009.0
20260505115212 0 122 0.0 1.6 0.00 0.00 0.00 83 1008.9
20260505114707 0 121 0.0 1.6 0.00 0.00 0.00 83 1008.9
20260505114201 0 117 0.0 1.6 0.00 0.00 0.00 85 1008.8
20260505113655 -1 141 0.0 0.0 0.00 0.00 0.00 85 1008.7
20260505113421 -1 141 0.0 0.0 0.00 0.00 0.00 84 1008.6
20260505112643 -1 141 0.0 0.0 0.00 0.00 0.00 84 1008.6
20260505112137 -1 141 0.0 0.0 0.00 0.00 0.00 84 1008.5
20260505111859 0 141 0.0 0.0 0.00 0.00 0.00 83 1008.4
20260505111733 -1 141 0.0 0.0 0.00 0.00 0.00 83 1008.5
20260505110619 0 141 0.0 1.6 0.00 0.00 0.00 83 1008.4
20260505110113 0 135 0.0 1.6 0.00 0.00 0.00 83 1008.3
20260505102025 0 123 0.0 0.0 0.00 0.00 0.00 80 1008.0
20260505101519 0 123 0.0 1.6 0.00 0.00 0.00 80 1008.0
20260505101013 0 122 0.0 3.2 0.00 0.00 0.00 80 1008.0
20260505100506 0 107 0.0 6.4 0.00 0.00 0.00 80 1008.0
20260505100003 0 330 0.0 6.4 0.00 0.00 0.00 81 1008.1
20260505095455 0 122 0.0 1.6 0.00 0.00 0.00 81 1008.1
20260505094949 0 205 0.0 1.6 0.00 0.00 0.00 81 1008.1
20260505094443 0 205 0.0 1.6 0.00 0.00 0.00 81 1008.1
20260505093937 0 167 0.0 1.6 0.00 0.00 0.00 80 1008.0
20260505093702 0 127 0.0 1.6 0.00 0.00 0.00 80 1008.0
20260505092925 0 207 0.0 0.0 0.00 0.00 0.00 80 1007.9
20260505092418 1 162 0.0 1.6 0.00 0.00 0.00 79 1007.9
20260505092145 1 231 0.0 1.6 0.00 0.00 0.00 79 1007.8
20260505091406 1 169 0.0 4.8 0.00 0.00 0.00 78 1007.8
20260505090901 1 77 0.0 4.8 0.00 0.00 0.00 78 1007.6
20260505090354 1 149 0.0 1.6 0.00 0.00 0.00 78 1007.6
20260505085849 1 153 0.0 1.6 0.00 0.00 0.00 77 1007.5
20260505085343 1 135 0.0 1.6 0.00 0.00 0.00 77 1007.4
20260505084837 1 78 0.0 3.2 0.00 0.00 0.00 77 1007.4
20260505084331 1 136 0.0 4.8 0.00 0.00 0.00 76 1007.4
20260505083825 1 125 0.0 4.8 0.00 0.00 0.00 76 1007.3
20260505083325 1 246 0.0 4.8 0.00 0.00 0.00 76 1007.3
20260505082821 1 289 0.0 1.6 0.00 0.00 0.00 76 1007.1
20260505082322 1 152 0.0 1.6 0.00 0.00 0.00 75 1007.1
20260505081823 1 150 0.0 0.0 0.00 0.00 0.00 75 1007.0
20260505081551 2 150 0.0 1.6 0.00 0.00 0.00 74 1007.0
20260505080819 2 354 0.0 1.6 0.00 0.00 0.00 73 1006.9
20260505080318 2 98 0.0 1.6 0.00 0.00 0.00 73 1006.8
20260505075820 2 82 0.0 4.8 0.00 0.00 0.00 72 1006.8
20260505075548 2 153 0.0 4.8 0.00 0.00 0.00 71 1006.9
20260505074817 2 141 0.0 3.2 0.00 0.00 0.00 71 1006.9
20260505074318 2 229 0.0 3.2 0.00 0.00 0.00 70 1006.9
20260505074049 3 232 0.0 1.6 0.00 0.00 0.00 69 1006.9
20260505073317 3 158 0.0 3.2 0.00 0.00 0.00 68 1006.9
20260505072816 3 147 0.0 3.2 0.00 0.00 0.00 67 1006.8
20260505072316 3 109 1.6 4.8 0.00 0.00 0.00 66 1006.8
20260505071821 3 160 1.6 4.8 0.00 0.00 0.00 65 1006.7
20260505071816 3 242 1.6 4.8 0.00 0.00 0.00 65 1006.7
20260505070817 3 159 3.2 4.8 0.00 0.00 0.00 65 1006.7
20260505070310 4 194 3.2 6.4 0.00 0.00 0.00 64 1006.8
20260505065805 4 169 1.6 6.4 0.00 0.00 0.00 64 1006.8
20260505065259 4 166 1.6 9.7 0.00 0.00 0.00 64 1006.7
20260505064753 4 165 3.2 9.7 0.00 0.00 0.00 64 1006.7
20260505064247 4 163 3.2 6.4 0.00 0.00 0.00 63 1006.7
20260505063741 4 259 1.6 6.4 0.00 0.00 0.00 64 1006.7
20260505063505 4 212 1.6 6.4 0.00 0.00 0.00 64 1006.6
20260505062729 4 140 1.6 4.8 0.00 0.00 0.00 64 1006.6
20260505062223 4 249 0.0 4.8 0.00 0.00 0.00 63 1006.7
20260505061717 4 124 1.6 6.4 0.00 0.00 0.00 63 1006.6
20260505061210 5 65 3.2 8.0 0.00 0.00 0.00 61 1006.6
20260505060705 5 235 3.2 8.0 0.00 0.00 0.00 62 1006.6
20260505060159 5 175 1.6 6.4 0.00 0.00 0.00 62 1006.5
20260505055653 5 168 1.6 4.8 0.00 0.00 0.00 62 1006.6
20260505055146 5 166 1.6 8.0 0.00 0.00 0.00 61 1006.5
20260505054917 5 177 1.6 8.0 0.00 0.00 0.00 61 1006.4
20260505054144 5 160 3.2 6.4 0.00 0.00 0.00 61 1006.5
20260505053644 5 181 3.2 8.0 0.00 0.00 0.00 61 1006.4
20260505053145 5 238 3.2 8.0 0.00 0.00 0.00 61 1006.5
20260505052643 5 221 3.2 6.4 0.00 0.00 0.00 62 1006.4
20260505052145 5 179 1.6 6.4 0.00 0.00 0.00 62 1006.4
20260505051643 5 163 1.6 4.8 0.00 0.00 0.00 63 1006.2
20260505051411 5 108 1.6 4.8 0.00 0.00 0.00 62 1006.2
20260505050639 4 89 1.6 3.2 0.00 0.00 0.00 64 1006.2
20260505050140 5 166 1.6 3.2 0.00 0.00 0.00 63 1006.2
20260505041634 3 215 0.0 3.2 0.00 0.00 0.00 66 1006.1
20260505041135 4 163 0.0 3.2 0.00 0.00 0.00 66 1006.1
20260505040634 4 207 0.0 3.2 0.00 0.00 0.00 66 1006.0
20260505040401 4 172 0.0 3.2 0.00 0.00 0.00 65 1006.0
20260505035629 4 163 0.0 3.2 0.00 0.00 0.00 66 1006.0
20260505035131 4 162 0.0 1.6 0.00 0.00 0.00 65 1006.0
20260505034902 4 205 0.0 1.6 0.00 0.00 0.00 64 1006.0
20260505034357 4 210 0.0 3.2 0.00 0.00 0.00 64 1006.0
20260505033624 5 194 1.6 3.2 0.00 0.00 0.00 63 1005.9
20260505033123 5 166 0.0 3.2 0.00 0.00 0.00 63 1005.9
20260505032616 5 205 0.0 1.6 0.00 0.00 0.00 62 1005.9
20260505032110 5 165 0.0 3.2 0.00 0.00 0.00 62 1005.9
20260505031608 5 165 1.6 3.2 0.00 0.00 0.00 61 1005.9
20260505031110 5 174 1.6 3.2 0.00 0.00 0.00 60 1005.9
20260505030608 5 156 0.0 3.2 0.00 0.00 0.00 60 1005.9
20260505030109 5 160 0.0 1.6 0.00 0.00 0.00 61 1005.8
20260505025609 5 208 0.0 3.2 0.00 0.00 0.00 60 1005.8
20260505025109 5 175 0.0 3.2 0.00 0.00 0.00 59 1005.8
20260505024609 6 211 1.6 3.2 0.00 0.00 0.00 58 1005.7
20260505024337 6 163 1.6 3.2 0.00 0.00 0.00 57 1005.7
20260505023608 6 194 0.0 3.2 0.00 0.00 0.00 57 1005.5
20260505023107 6 208 0.0 3.2 0.00 0.00 0.00 57 1005.5
20260505022606 6 166 0.0 1.6 0.00 0.00 0.00 57 1005.5
20260505022107 6 155 0.0 1.6 0.00 0.00 0.00 57 1005.4
20260505021610 6 202 0.0 1.6 0.00 0.00 0.00 55 1005.3
20260505021606 6 189 0.0 1.6 0.00 0.00 0.00 56 1005.4
20260505020602 6 202 0.0 3.2 0.00 0.00 0.00 54 1005.2
20260505020329 6 229 0.0 4.8 0.00 0.00 0.00 53 1005.2
20260505015821 7 258 1.6 8.0 0.00 0.00 0.00 53 1005.1
20260505015045 7 294 1.6 8.0 0.00 0.00 0.00 52 1005.1
20260505014539 7 114 0.0 3.2 0.00 0.00 0.00 52 1005.0
20260505014307 7 224 0.0 4.8 0.00 0.00 0.00 53 1004.9
20260505013527 7 277 1.6 4.8 0.00 0.00 0.00 52 1004.8
20260505013021 7 150 1.6 4.8 0.00 0.00 0.00 51 1004.8
20260505012514 7 219 1.6 4.8 0.00 0.00 0.00 51 1004.7
20260505012240 8 194 1.6 4.8 0.00 0.00 0.00 52 1004.6
20260505011503 8 253 1.6 4.8 0.00 0.00 0.00 50 1004.6
20260505011002 8 173 3.2 9.7 0.00 0.00 0.00 50 1004.5
20260505010500 8 41 3.2 11.3 0.00 0.00 0.00 49 1004.5
20260505010000 8 167 3.2 11.3 0.00 0.00 0.00 49 1004.4
20260505005500 8 205 3.2 11.3 0.00 0.00 0.00 48 1004.3
20260505004958 9 79 3.2 9.7 0.00 0.00 0.00 46 1004.3
20260505004456 9 132 3.2 9.7 0.00 0.00 0.00 47 1004.3
20260505003956 9 162 1.6 8.0 0.00 0.00 0.00 51 1004.3
20260505003459 9 89 1.6 8.0 0.00 0.00 0.00 51 1004.3
20260505002957 9 138 1.6 8.0 0.00 0.00 0.00 49 1004.2
20260505002454 9 283 1.6 6.4 0.00 0.00 0.00 49 1004.2
20260505001954 9 109 0.0 4.8 0.00 0.00 0.00 50 1004.2
20260505001726 9 91 1.6 9.7 0.00 0.00 0.00 50 1004.1
20260505000953 10 264 4.8 16.1 0.00 0.00 0.00 48 1004.0
20260505000454 10 176 3.2 16.1 0.00 0.00 0.00 45 1003.8
20260504235952 11 120 1.6 11.3 0.00 0.00 0.00 45 1003.7
20260504235453 11 222 3.2 11.3 0.00 0.00 0.00 46 1003.6
20260504235448 11 69 1.6 11.3 0.00 0.00 0.00 46 1003.6
20260504234449 11 338 3.2 11.3 0.00 0.00 0.00 43 1003.5
20260504233948 12 96 3.2 14.5 0.00 0.00 0.00 42 1003.4
20260504233448 12 314 1.6 14.5 0.00 0.00 0.00 43 1003.4
20260504233219 11 105 1.6 8.0 0.00 0.00 0.00 42 1003.3
20260504232447 12 210 1.6 9.7 0.00 0.00 0.00 45 1003.3
20260504231943 12 233 3.2 11.3 0.00 0.00 0.00 42 1003.1
20260504231442 12 86 3.2 11.3 0.00 0.00 0.00 44 1003.2
20260504230942 12 142 3.2 8.0 0.00 0.00 0.00 42 1003.2
20260504230715 12 282 3.2 12.9 0.00 0.00 0.00 43 1003.1
20260504225944 12 190 3.2 12.9 0.00 0.00 0.00 42 1003.0
20260504225713 12 78 3.2 9.7 0.00 0.00 0.00 42 1002.9
20260504224942 13 5 3.2 11.3 0.00 0.00 0.00 41 1002.7
20260504224443 12 58 3.2 11.3 0.00 0.00 0.00 43 1002.7